Cartersville, GA

4:49 AM EST on November 15, 2019 (GMT -0500)
Cartersville

Weather History for KVPC - September, 2019

Change the Weather History Date:

Thursday, September 19, 2019

  Actual Average Record
Temperature  
Mean Temperature 76 °F 70 °F  
Max Temperature 84 °F 82 °F 95 °F (2018)
Min Temperature 68 °F 59 °F 48 °F (2004)
Degree Days  
Heating Degree Days 0 1  
Month to date heating degree days 0 1  
Since 1 July heating degree days 0 1  
Cooling Degree Days 12 6  
Month to date cooling degree days 309 163  
Year to date cooling degree days 1881 1428  
Growing Degree Days 26 (Base 50)    
Moisture  
Dew Point 58 °F    
Average Humidity 55    
Maximum Humidity 73    
Minimum Humidity 40    
Precipitation  
Precipitation 0.00 in 0.13 in 1.71 in (1991)
Month to date precipitation 0.01 2.18  
Year to date precipitation 31.55 36.77  
Sea Level Pressure  
Sea Level Pressure 30.14 in    
Wind  
Wind Speed 4 mph ()    
Max Wind Speed 15 mph    
Max Gust Speed 23 mph    
Visibility 10.0 miles    
Events      
T = Trace of Precipitation, MM = Missing Value Source: Averaged Metar Reports

Daily Weather History Graph

Daily Weather History Graph

Search for Another Location

Airport or City:

Astronomy

Sep. 19, 2019 Rise Set
Actual Time 7:25 AM EDT 7:40 PM EDT
Civil Twilight 7:00 AM EDT 8:05 PM EDT
Nautical Twilight 6:30 AM EDT 8:34 PM EDT
Astronomical Twilight 6:01 AM EDT 9:04 PM EDT
Moon 11:02 PM EDT (9/19) 12:15 PM EDT (9/19)
Length of Visible Light 13h 05m
Length of Day
12h 15m
Waning Gibbous, 74% of the Moon is Illuminated
Sep 19
Waning Gibbous
Sep 21
Last Quarter
Sep 28
New
Oct 5
First Quarter
Oct 13
Full

Hourly Weather History & Observations

Time (EDT) Temp. Heat Index Dew Point Humidity Pressure Visibility Wind Dir Wind Speed Gust Speed Precip Events Conditions
12:53 AM 72.0 °F - 57.9 °F 61% 30.09 in 10.0 mi Variable 4.6 mph - N/A   Clear
1:53 AM 71.1 °F - 57.9 °F 63% 30.10 in 10.0 mi East 3.5 mph - N/A   Clear
2:53 AM 70.0 °F - 57.9 °F 65% 30.09 in 10.0 mi Variable 3.5 mph - N/A   Clear
3:53 AM 69.1 °F - 57.9 °F 68% 30.09 in 10.0 mi Calm Calm - N/A   Clear
4:53 AM 68.0 °F - 57.9 °F 70% 30.11 in 10.0 mi Calm Calm - N/A   Clear
5:53 AM 69.1 °F - 59.0 °F 70% 30.11 in 10.0 mi Variable 3.5 mph - N/A   Clear
6:53 AM 69.1 °F - 60.1 °F 73% 30.13 in 10.0 mi East 4.6 mph - N/A   Clear
7:53 AM 69.1 °F - 60.1 °F 73% 30.15 in 10.0 mi Calm Calm - N/A   Partly Cloudy
8:53 AM 72.0 °F - 60.1 °F 66% 30.17 in 10.0 mi Variable 4.6 mph - N/A   Mostly Cloudy
9:53 AM 75.0 °F - 60.1 °F 60% 30.18 in 10.0 mi SE 8.1 mph - N/A   Clear
10:53 AM 77.0 °F - 59.0 °F 54% 30.19 in 10.0 mi SE 11.5 mph 17.3 mph N/A   Clear
11:53 AM 80.1 °F 80.4 °F 57.0 °F 45% 30.18 in 10.0 mi SSE 11.5 mph 18.4 mph N/A   Clear
12:53 PM 81.0 °F 81.0 °F 57.0 °F 44% 30.17 in 10.0 mi ESE 8.1 mph - N/A   Clear
1:53 PM 82.9 °F 82.4 °F 57.0 °F 41% 30.16 in 10.0 mi ESE 8.1 mph - N/A   Clear
2:53 PM 82.9 °F 82.4 °F 57.0 °F 41% 30.15 in 10.0 mi Variable 6.9 mph - N/A   Partly Cloudy
3:53 PM 84.0 °F 83.3 °F 57.0 °F 40% 30.13 in 10.0 mi ESE 9.2 mph - N/A   Clear
4:53 PM 82.9 °F 82.4 °F 57.0 °F 41% 30.12 in 10.0 mi East 8.1 mph - N/A   Clear
5:53 PM 82.0 °F 81.7 °F 57.0 °F 42% 30.12 in 10.0 mi Variable 5.8 mph - N/A   Clear
6:53 PM 80.1 °F 80.4 °F 57.0 °F 45% 30.12 in 10.0 mi East 5.8 mph - N/A   Clear
7:53 PM 77.0 °F - 57.0 °F 50% 30.13 in 10.0 mi ESE 4.6 mph - N/A   Clear
8:53 PM 75.0 °F - 57.0 °F 53% 30.15 in 10.0 mi Variable 5.8 mph - N/A   Clear
9:53 PM 73.0 °F - 55.9 °F 55% 30.17 in 10.0 mi East 5.8 mph - N/A   Mostly Cloudy
10:53 PM 73.0 °F - 55.0 °F 53% 30.19 in 10.0 mi Variable 6.9 mph - N/A   Clear
11:53 PM 71.1 °F - 55.9 °F 59% 30.19 in 10.0 mi East 4.6 mph - N/A   Clear